Home > Weather > Bengkulu > Past weeks

Flag for Indonesia Weather for the Past 2 Weeks in Bengkulu, Bengkulu, Indonesia

Now
79 °F

Fog.


Feels Like: 83 °F
Forecast: 78 / 88 °F
Wind: 5 mph from Northwest

Location: Palembang / Talangbetutu

Current Time: Feb 10, 2016 at 6:13:48 AM

Latest Report: Feb 10, 2016 at 5:30 AM


Visibility: 2 mi

Pressure: 29.83 "Hg

Humidity: 94%

Dew point: 77 °F

Location of BengkuluLocation

Historic Weather in Bengkulu — Graph

°F

Bengkulu Temperature Yesterday

Maximum temperature yesterday: 86 °F (at 1:30 PM)
Minimum temperature yesterday: 75 °F (at 12:00 AM)
Average temperature yesterday: 81 °F

High & Low Weather Summary for the Past Weeks

 TemperatureHumidityPressure
High93 °F (Jan 29, 2:30 PM)100% (Jan 26, 5:30 AM)29.92 "Hg (Jan 26, 5:30 AM)
Low75 °F (Jan 26, 5:30 AM)49% (Feb 3, 4:30 PM)29.68 "Hg (Feb 5, 3:00 PM)
Average83 °F82%29.82 "Hg
* Reported Jan 26 5:00 AM — Feb 10 5:00 AM, Bengkulu, Weather by CustomWeather, © 2016

Note: Actual official high and low records may vary slightly from our data, if they occured in-between our weather recording intervals... More about our weather records

Advertising

Bengkulu Weather History for the Previous 24 Hours

 ConditionsComfort  
Time TempWeatherWind HumidityBarometerVisibility
5:00 AM
Wed, Feb 10
79 °FFog.5 mph94%29.80 "Hg3 mi
4:00 AM79 °FFog.6 mph94%29.80 "Hg2 mi
10:00 PM
Tue, Feb 9
81 °FPassing clouds.5 mph89%29.89 "HgN/A
9:30 PM81 °FPassing clouds.No wind89%29.86 "HgN/A
9:00 PM81 °FPassing clouds.3 mph89%29.86 "HgN/A
8:30 PM81 °FPassing clouds.3 mph89%29.86 "HgN/A
8:00 PM82 °FPassing clouds.No wind84%29.83 "HgN/A
7:30 PM82 °FPassing clouds.5 mph84%29.83 "HgN/A
7:00 PM82 °FPassing clouds.6 mph84%29.83 "HgN/A
6:30 PM82 °FPassing clouds.6 mph84%29.80 "HgN/A
6:00 PM84 °FPassing clouds.5 mph79%29.80 "HgN/A
5:00 PM84 °FScattered clouds.7 mph74%29.80 "HgN/A
4:30 PM86 °FScattered clouds.6 mph70%29.77 "HgN/A
4:00 PM86 °FScattered clouds.9 mph70%29.77 "HgN/A
3:30 PM86 °FScattered clouds.12 mph75%29.77 "HgN/A
3:00 PM86 °FScattered clouds.3 mph70%29.80 "HgN/A
2:00 PM86 °FPartly sunny.8 mph70%29.80 "HgN/A
1:30 PM86 °FPartly sunny.13 mph70%29.83 "HgN/A
1:00 PM84 °FPartly sunny.14 mph74%29.83 "HgN/A
12:30 PM84 °FPartly sunny.14 mph74%29.86 "HgN/A
12:00 PM84 °FPartly sunny.10 mph74%29.86 "HgN/A
11:30 AM82 °FPartly sunny.13 mph79%29.89 "HgN/A
11:00 AM82 °FPartly sunny.8 mph79%29.89 "HgN/A
10:30 AM82 °FPartly sunny.9 mph79%29.89 "HgN/A
10:00 AM81 °FPartly sunny.12 mph84%29.89 "HgN/A
9:30 AM79 °FScattered clouds.9 mph89%29.89 "HgN/A
9:00 AM77 °FScattered clouds.8 mph94%29.89 "HgN/A
8:30 AM77 °FScattered clouds.6 mph94%29.89 "Hg4 mi
8:00 AM75 °FScattered clouds.6 mph94%29.89 "Hg4 mi
7:30 AM75 °FFog.3 mph94%29.89 "Hg2 mi
6:30 AM75 °FFog.3 mph94%29.86 "Hg2 mi
6:00 AM75 °FFog.6 mph94%29.86 "Hg2 mi
Weather by CustomWeather, © 2016

See weather overviewHow to use our weather pages